EN

Hourly Weather Abaigar

Today, 12 June, Saturday

Time Temperature Precipitation Wind Pressure Humidity
00:00 +15°C° 0 mm 1 mps 711 mmHg 89%
01:00 +14°C° 0 mm 1 mps 711 mmHg 90%
02:00 +14°C° 0 mm 1 mps 711 mmHg 91%
03:00 +14°C° 0 mm 1 mps 711 mmHg 92%
04:00 +14°C° 0 mm 1 mps 711 mmHg 90%
05:00 +15°C° 0 mm 1 mps 711 mmHg 88%
06:00 +15°C° 0 mm 1 mps 712 mmHg 87%
07:00 +18°C° 0 mm 1 mps 712 mmHg 78%
08:00 +20°C° 0 mm 1 mps 712 mmHg 70%
09:00 +23°C° 0 mm 1 mps 712 mmHg 61%
10:00 +24°C° 0 mm 1 mps 713 mmHg 56%
11:00 +26°C° 0 mm 2 mps 713 mmHg 51%
12:00 +27°C° 0 mm 2 mps 713 mmHg 45%
13:00 +27°C° 0 mm 2 mps 712 mmHg 43%
14:00 +28°C° 0 mm 3 mps 712 mmHg 41%
15:00 +28°C° 0 mm 3 mps 712 mmHg 38%
16:00 +28°C° 0 mm 2 mps 712 mmHg 41%
17:00 +28°C° 0 mm 2 mps 712 mmHg 44%
18:00 +27°C° 0 mm 2 mps 712 mmHg 47%
19:00 +25°C° 0 mm 2 mps 712 mmHg 58%
20:00 +21°C° 0 mm 2 mps 712 mmHg 68%
21:00 +19°C° 0 mm 2 mps 712 mmHg 78%
22:00 +19°C° 0 mm 2 mps 712 mmHg 80%
23:00 +19°C° 0 mm 1 mps 712 mmHg 81%

Tomorrow, 13 June, Sunday

Time Temperature Precipitation Wind Pressure Humidity
00:00 +19°C° 0 mm 1 mps 712 mmHg 83%
01:00 +18°C° 0 mm 1 mps 712 mmHg 83%
02:00 +18°C° 0 mm 1 mps 712 mmHg 82%
03:00 +18°C° 0 mm 1 mps 712 mmHg 82%
04:00 +19°C° 0 mm 1 mps 712 mmHg 79%
05:00 +20°C° 0 mm 1 mps 712 mmHg 77%
06:00 +20°C° 0 mm 1 mps 712 mmHg 74%
07:00 +22°C° 0 mm 1 mps 713 mmHg 66%
08:00 +25°C° 0 mm 1 mps 713 mmHg 57%
09:00 +27°C° 0 mm 2 mps 713 mmHg 49%
10:00 +28°C° 0 mm 2 mps 713 mmHg 43%
11:00 +29°C° 0 mm 2 mps 713 mmHg 38%
12:00 +31°C° 0 mm 3 mps 713 mmHg 33%
13:00 +31°C° 0 mm 3 mps 712 mmHg 31%
14:00 +33°C° 0 mm 3 mps 712 mmHg 29%
15:00 +33°C° 0 mm 3 mps 711 mmHg 27%
16:00 +31°C° 0 mm 3 mps 711 mmHg 32%
17:00 +31°C° 0 mm 2 mps 711 mmHg 36%
18:00 +30°C° 0 mm 2 mps 711 mmHg 40%
19:00 +28°C° 0 mm 2 mps 710 mmHg 44%
20:00 +26°C° 0 mm 2 mps 710 mmHg 48%
21:00 +24°C° 0 mm 1 mps 710 mmHg 52%
22:00 +23°C° 0 mm 1 mps 710 mmHg 56%
23:00 +22°C° 0 mm 1 mps 710 mmHg 60%

Day after tomorrow, 14 June, Monday

Time Temperature Precipitation Wind Pressure Humidity
00:00 +21°C° 0 mm 1 mps 710 mmHg 63%
01:00 +20°C° 0 mm 1 mps 710 mmHg 67%
02:00 +20°C° 0 mm 1 mps 710 mmHg 70%
03:00 +19°C° 0 mm 1 mps 710 mmHg 74%
04:00 +20°C° 0 mm 1 mps 710 mmHg 74%
05:00 +20°C° 0 mm 1 mps 711 mmHg 74%
06:00 +21°C° 0 mm 1 mps 711 mmHg 74%
07:00 +23°C° 0 mm 1 mps 711 mmHg 66%
08:00 +26°C° 0 mm 1 mps 711 mmHg 57%
09:00 +28°C° 0 mm 1 mps 711 mmHg 48%
10:00 +29°C° 0 mm 1 mps 711 mmHg 43%
11:00 +31°C° 0 mm 1 mps 711 mmHg 38%
12:00 +32°C° 0 mm 1 mps 711 mmHg 33%
13:00 +32°C° 0 mm 1 mps 711 mmHg 32%
14:00 +34°C° 0 mm 2 mps 711 mmHg 31%
15:00 +34°C° 0 mm 2 mps 710 mmHg 31%
16:00 +30°C° 0.4 mm 3 mps 710 mmHg 44%
17:00 +27°C° 0.4 mm 3 mps 710 mmHg 58%
18:00 +23°C° 0.4 mm 4 mps 710 mmHg 71%
19:00 +22°C° 0.4 mm 3 mps 710 mmHg 77%
20:00 +20°C° 0.4 mm 3 mps 711 mmHg 83%
21:00 +19°C° 0.4 mm 2 mps 711 mmHg 89%
22:00 +19°C° 0.3 mm 2 mps 711 mmHg 89%
23:00 +18°C° 0.3 mm 2 mps 711 mmHg 90%

15 June, Tuesday

Time Temperature Precipitation Wind Pressure Humidity
00:00 +18°C° 0.3 mm 2 mps 711 mmHg 91%
01:00 +17°C° 0 mm 2 mps 710 mmHg 90%
02:00 +17°C° 0 mm 2 mps 710 mmHg 90%
03:00 +16°C° 0 mm 1 mps 710 mmHg 90%
04:00 +18°C° 0 mm 1 mps 710 mmHg 86%
05:00 +18°C° 0 mm 1 mps 710 mmHg 83%
06:00 +19°C° 0 mm 1 mps 710 mmHg 80%
07:00 +21°C° 0 mm 1 mps 710 mmHg 71%
08:00 +24°C° 0 mm 1 mps 710 mmHg 62%
09:00 +26°C° 0 mm 1 mps 710 mmHg 53%
10:00 +28°C° 0 mm 1 mps 710 mmHg 47%
11:00 +29°C° 0 mm 1 mps 710 mmHg 42%
12:00 +31°C° 0 mm 2 mps 710 mmHg 37%
13:00 +32°C° 0 mm 2 mps 709 mmHg 34%
14:00 +34°C° 0 mm 3 mps 709 mmHg 32%
15:00 +34°C° 0 mm 3 mps 708 mmHg 29%
16:00 +31°C° 0.1 mm 3 mps 708 mmHg 38%
17:00 +29°C° 0.1 mm 3 mps 707 mmHg 48%
18:00 +26°C° 0.1 mm 2 mps 707 mmHg 57%
19:00 +24°C° 1.7 mm 3 mps 707 mmHg 66%
20:00 +21°C° 1.7 mm 3 mps 708 mmHg 75%
21:00 +19°C° 1.7 mm 3 mps 709 mmHg 84%
22:00 +19°C° 0.6 mm 3 mps 708 mmHg 85%
23:00 +19°C° 0.6 mm 2 mps 708 mmHg 86%

16 June, Wednesday

Time Temperature Precipitation Wind Pressure Humidity
00:00 +19°C° 0.6 mm 1 mps 708 mmHg 87%
01:00 +19°C° 0.1 mm 1 mps 707 mmHg 86%
02:00 +19°C° 0.1 mm 2 mps 707 mmHg 85%
03:00 +19°C° 0.1 mm 2 mps 707 mmHg 84%
04:00 +19°C° 0 mm 2 mps 706 mmHg 81%
05:00 +19°C° 0 mm 2 mps 706 mmHg 79%
06:00 +20°C° 0 mm 2 mps 706 mmHg 76%
07:00 +22°C° 0 mm 3 mps 706 mmHg 68%
08:00 +23°C° 0 mm 4 mps 706 mmHg 59%
09:00 +26°C° 0 mm 5 mps 707 mmHg 50%
10:00 +26°C° 0 mm 5 mps 706 mmHg 50%
11:00 +27°C° 0 mm 4 mps 706 mmHg 49%
12:00 +27°C° 0 mm 4 mps 706 mmHg 49%
13:00 +28°C° 0 mm 5 mps 706 mmHg 46%
14:00 +28°C° 0 mm 5 mps 706 mmHg 43%
15:00 +29°C° 0 mm 5 mps 705 mmHg 40%
16:00 +28°C° 0.4 mm 5 mps 705 mmHg 47%
17:00 +26°C° 0.4 mm 5 mps 704 mmHg 55%
18:00 +23°C° 0.4 mm 5 mps 703 mmHg 62%
19:00 +22°C° 2 mm 4 mps 704 mmHg 71%
20:00 +20°C° 2 mm 3 mps 705 mmHg 79%
21:00 +18°C° 2 mm 2 mps 706 mmHg 88%
22:00 +18°C° 0.3 mm 2 mps 706 mmHg 89%
23:00 +18°C° 0.3 mm 2 mps 706 mmHg 89%

17 June, Thursday

Time Temperature Precipitation Wind Pressure Humidity
00:00 +18°C° 0.3 mm 1 mps 705 mmHg 89%
01:00 +18°C° 0 mm 1 mps 705 mmHg 90%
02:00 +18°C° 0 mm 1 mps 705 mmHg 90%
03:00 +18°C° 0 mm 1 mps 704 mmHg 90%
04:00 +18°C° 0 mm 1 mps 704 mmHg 89%
05:00 +19°C° 0 mm 1 mps 704 mmHg 87%
06:00 +19°C° 0 mm 1 mps 704 mmHg 86%
07:00 +20°C° 0 mm 2 mps 704 mmHg 79%
08:00 +21°C° 0 mm 3 mps 705 mmHg 72%
09:00 +22°C° 0 mm 4 mps 705 mmHg 65%
10:00 +21°C° 1.6 mm 3 mps 705 mmHg 72%
11:00 +19°C° 1.6 mm 3 mps 704 mmHg 79%
12:00 +18°C° 1.6 mm 2 mps 704 mmHg 86%
13:00 +17°C° 5.4 mm 2 mps 704 mmHg 89%
14:00 +16°C° 5.4 mm 2 mps 704 mmHg 92%
15:00 +15°C° 5.4 mm 2 mps 704 mmHg 95%
16:00 +16°C° 1.9 mm 2 mps 704 mmHg 91%
17:00 +18°C° 1.9 mm 1 mps 704 mmHg 86%
18:00 +18°C° 1.9 mm 1 mps 705 mmHg 82%
19:00 +16°C° 0 mm 1 mps 705 mmHg 85%
20:00 +15°C° 0 mm 2 mps 706 mmHg 89%
21:00 +15°C° 0 mm 2 mps 706 mmHg 92%
22:00 +14°C° 0.1 mm 2 mps 706 mmHg 93%
23:00 +14°C° 0.1 mm 2 mps 706 mmHg 94%
Show more